TimeEDT,TemperatureF,Dew PointF,Humidity,Sea Level PressureIn,VisibilityMPH,Wind Direction,Wind SpeedMPH,Gust SpeedMPH,PrecipitationIn,Events,Conditions,WindDirDegrees,DateUTC
12:53 AM,44.1,36.0,73,30.12,10.0,West,4.6,-,N/A,,Overcast,260,2012-10-07 04:53:00
1:53 AM,44.1,36.0,73,30.12,10.0,WNW,4.6,-,N/A,,Overcast,300,2012-10-07 05:53:00
2:53 AM,44.1,35.1,71,30.13,10.0,West,3.5,-,N/A,,Overcast,260,2012-10-07 06:53:00
3:53 AM,43.0,34.0,71,30.12,10.0,WNW,4.6,-,N/A,,Overcast,290,2012-10-07 07:53:00
4:53 AM,43.0,33.1,68,30.11,10.0,NW,3.5,-,N/A,,Overcast,320,2012-10-07 08:53:00
5:53 AM,43.0,34.0,71,30.10,10.0,Calm,Calm,-,N/A,,Overcast,0,2012-10-07 09:53:00
6:53 AM,42.1,34.0,73,30.12,10.0,WNW,3.5,-,N/A,,Overcast,300,2012-10-07 10:53:00
7:53 AM,39.9,34.0,79,30.12,10.0,West,3.5,-,N/A,,Mostly Cloudy,280,2012-10-07 11:53:00
8:53 AM,42.1,36.0,79,30.13,10.0,West,3.5,-,N/A,,Mostly Cloudy,270,2012-10-07 12:53:00
9:53 AM,45.0,36.0,71,30.14,10.0,North,4.6,-,N/A,,Overcast,350,2012-10-07 13:53:00
10:53 AM,46.9,35.1,63,30.14,10.0,Calm,Calm,-,N/A,,Mostly Cloudy,0,2012-10-07 14:53:00
11:53 AM,48.0,33.1,56,30.14,10.0,Variable,5.8,-,N/A,,Overcast,0,2012-10-07 15:53:00
12:53 PM,48.9,32.0,52,30.14,10.0,South,4.6,-,N/A,,Overcast,180,2012-10-07 16:53:00
1:53 PM,46.9,35.1,63,30.13,8.0,WSW,3.5,-,0.00,Rain,Light Rain,240,2012-10-07 17:53:00
2:48 PM,46.4,35.6,66,30.10,10.0,Variable,3.5,-,0.00,,Overcast,0,2012-10-07 18:48:00
2:53 PM,46.9,35.1,63,30.11,10.0,Calm,Calm,-,0.00,,Overcast,0,2012-10-07 18:53:00
3:28 PM,46.4,35.6,66,30.10,10.0,SW,5.8,-,0.00,Rain,Light Rain,230,2012-10-07 19:28:00
3:53 PM,46.0,37.0,71,30.11,10.0,South,6.9,-,0.00,Rain,Light Rain,180,2012-10-07 19:53:00
3:55 PM,46.4,37.4,71,30.10,10.0,South,5.8,-,0.00,Rain,Light Rain,180,2012-10-07 19:55:00
4:40 PM,46.4,37.4,71,30.10,10.0,South,6.9,-,0.00,,Overcast,170,2012-10-07 20:40:00
4:53 PM,46.0,39.0,76,30.11,10.0,South,5.8,-,0.00,,Mostly Cloudy,180,2012-10-07 20:53:00
5:53 PM,46.9,39.0,74,30.11,10.0,West,4.6,-,0.00,,Mostly Cloudy,270,2012-10-07 21:53:00
6:53 PM,46.0,39.0,76,30.12,10.0,South,5.8,-,N/A,,Mostly Cloudy,170,2012-10-07 22:53:00
7:53 PM,46.0,39.9,79,30.13,10.0,SW,8.1,-,N/A,,Overcast,220,2012-10-07 23:53:00
8:53 PM,45.0,39.0,80,30.14,10.0,WSW,6.9,-,0.00,,Overcast,250,2012-10-08 00:53:00
9:53 PM,44.1,39.0,82,30.15,10.0,WSW,5.8,-,N/A,,Mostly Cloudy,250,2012-10-08 01:53:00
10:53 PM,42.1,37.9,85,30.16,10.0,SW,4.6,-,N/A,,Scattered Clouds,230,2012-10-08 02:53:00
11:53 PM,42.1,37.9,85,30.17,10.0,West,5.8,-,N/A,,Mostly Cloudy,260,2012-10-08 03:53:00